Location: *
(31.2983°S, 151.4094°E)
Time: 12:59:34
(UTC+00:00)

Cosmos 1606 - Pass Details

Date: 25 August 2019
Orbit: 505 x 527 km, 82.5° (Epoch: 22 September)

Event Time Altitude Azimuth Distance (km) Brightness Sun altitude
Rises 19:05:38 0° 190° (S) 2,654 6.2 -16.3°
Reaches altitude 10° 19:07:48 10° 192° (SSW) 1,756 5.2 -15.8°
Maximum altitude 19:11:37 66° 275° (W) 563 2.6 -15.0°
Drops below altitude 10° 19:15:22 10° 357° (N) 1,721 5.4 -14.2°
Sets 19:17:28 0° 359° (N) 2,596 6.3 -13.8°
